| time (UTC) | temp F | wind direction | speed MPH | gust MPH | rain 1hr in | rain 24hr in | rain mn in | humidity % | barometer mb |
| 20260507134311 | 85 | 0 | 0.0 | 0.0 | 0.00 | 0.00 | 0.00 | 24 | 458.6 |
| 20260507133541 | 85 | 0 | 0.0 | 0.0 | 0.00 | 0.00 | 0.00 | 25 | 458.5 |
| 20260507132811 | 85 | 0 | 0.0 | 0.0 | 0.00 | 0.00 | 0.00 | 24 | 458.6 |
| 20260507132041 | 86 | 0 | 0.0 | 0.0 | 0.00 | 0.00 | 0.00 | 25 | 458.5 |
| 20260507131311 | 86 | 0 | 0.0 | 0.0 | 0.00 | 0.00 | 0.00 | 25 | 458.5 |
| 20260507130541 | 86 | 0 | 0.0 | 0.0 | 0.00 | 0.00 | 0.00 | 25 | 458.6 |
| 20260507125811 | 86 | 0 | 0.0 | 0.0 | 0.00 | 0.00 | 0.00 | 24 | 458.6 |
| 20260507125041 | 87 | 0 | 0.0 | 0.0 | 0.00 | 0.00 | 0.00 | 25 | 458.6 |
| 20260507124311 | 87 | 0 | 0.0 | 0.0 | 0.00 | 0.00 | 0.00 | 25 | 458.6 |
| 20260507123541 | 87 | 0 | 0.0 | 0.0 | 0.00 | 0.00 | 0.00 | 25 | 458.5 |
| 20260507122810 | 87 | 0 | 0.0 | 0.0 | 0.00 | 0.00 | 0.00 | 24 | 458.5 |
| 20260507122040 | 88 | 0 | 0.0 | 0.0 | 0.00 | 0.00 | 0.00 | 24 | 458.6 |
| 20260507121310 | 88 | 270 | 0.0 | 0.0 | 0.00 | 0.00 | 0.00 | 25 | 458.6 |
| 20260507120541 | 88 | 315 | 0.0 | 0.0 | 0.00 | 0.00 | 0.00 | 25 | 458.6 |
| 20260507115810 | 88 | 315 | 0.0 | 0.0 | 0.00 | 0.00 | 0.00 | 25 | 458.6 |
| 20260507115040 | 88 | 315 | 0.0 | 0.0 | 0.00 | 0.00 | 0.00 | 25 | 458.6 |
| 20260507114310 | 88 | 315 | 0.0 | 0.0 | 0.00 | 0.00 | 0.00 | 26 | 458.6 |
| 20260507113540 | 88 | 315 | 0.0 | 0.0 | 0.00 | 0.00 | 0.00 | 26 | 458.6 |
| 20260507112810 | 88 | 270 | 0.0 | 0.0 | 0.00 | 0.00 | 0.00 | 27 | 458.6 |
| 20260507112040 | 87 | 270 | 0.0 | 0.0 | 0.00 | 0.00 | 0.00 | 27 | 458.6 |
| 20260507111310 | 87 | 315 | 0.0 | 0.0 | 0.00 | 0.00 | 0.00 | 28 | 458.6 |
| 20260507110540 | 88 | 270 | 0.0 | 0.0 | 0.00 | 0.00 | 0.00 | 28 | 458.6 |
| 20260507105810 | 88 | 315 | 0.0 | 0.0 | 0.00 | 0.00 | 0.00 | 29 | 458.6 |
| 20260507105040 | 88 | 0 | 0.0 | 0.0 | 0.00 | 0.00 | 0.00 | 30 | 458.6 |
| 20260507104310 | 88 | 0 | 0.0 | 0.0 | 0.00 | 0.00 | 0.00 | 30 | 458.6 |
| 20260507103540 | 88 | 315 | 0.0 | 0.0 | 0.00 | 0.00 | 0.00 | 32 | 458.6 |
| 20260507102810 | 88 | 0 | 0.0 | 0.0 | 0.00 | 0.00 | 0.00 | 32 | 458.6 |
| 20260507102040 | 88 | 315 | 0.0 | 0.0 | 0.00 | 0.00 | 0.00 | 32 | 458.6 |
| 20260507101310 | 88 | 0 | 0.0 | 0.0 | 0.00 | 0.00 | 0.00 | 34 | 458.6 |
| 20260507100540 | 87 | 315 | 0.0 | 0.0 | 0.00 | 0.00 | 0.00 | 34 | 458.6 |
| 20260507095809 | 88 | 90 | 0.0 | 0.0 | 0.00 | 0.00 | 0.00 | 33 | 458.6 |
| 20260507095039 | 88 | 0 | 0.0 | 0.0 | 0.00 | 0.00 | 0.00 | 36 | 458.6 |
| 20260507094309 | 88 | 0 | 0.0 | 0.0 | 0.00 | 0.00 | 0.00 | 37 | 458.6 |
| 20260507093539 | 88 | 0 | 0.0 | 0.0 | 0.00 | 0.00 | 0.00 | 37 | 458.6 |
| 20260507092809 | 88 | 0 | 0.0 | 0.0 | 0.00 | 0.00 | 0.00 | 38 | 458.6 |
| 20260507092039 | 88 | 315 | 0.0 | 0.0 | 0.00 | 0.00 | 0.00 | 38 | 458.6 |
| 20260507091309 | 88 | 315 | 0.0 | 0.0 | 0.00 | 0.00 | 0.00 | 41 | 458.6 |
| 20260507090539 | 88 | 315 | 0.0 | 0.0 | 0.00 | 0.00 | 0.00 | 41 | 458.6 |
| 20260507085809 | 88 | 315 | 0.0 | 0.0 | 0.00 | 0.00 | 0.00 | 44 | 458.5 |
| 20260507085039 | 88 | 0 | 0.0 | 0.0 | 0.00 | 0.00 | 0.00 | 45 | 458.6 |
| 20260507084309 | 87 | 315 | 0.0 | 0.0 | 0.00 | 0.00 | 0.00 | 47 | 458.6 |
| 20260507083539 | 87 | 315 | 0.0 | 0.0 | 0.00 | 0.00 | 0.00 | 48 | 458.6 |
| 20260507082809 | 87 | 315 | 0.0 | 0.0 | 0.00 | 0.00 | 0.00 | 49 | 458.5 |
| 20260507082039 | 86 | 315 | 0.0 | 0.0 | 0.00 | 0.00 | 0.00 | 51 | 458.6 |
| 20260507081309 | 86 | 315 | 0.0 | 0.0 | 0.00 | 0.00 | 0.00 | 54 | 458.6 |
| 20260507080539 | 86 | 315 | 0.0 | 0.0 | 0.00 | 0.00 | 0.00 | 55 | 458.5 |
| 20260507075809 | 85 | 315 | 0.0 | 0.0 | 0.00 | 0.00 | 0.00 | 57 | 458.6 |
| 20260507075039 | 85 | 315 | 0.0 | 0.0 | 0.00 | 0.00 | 0.00 | 58 | 458.6 |
| 20260507074308 | 84 | 315 | 0.0 | 0.0 | 0.00 | 0.00 | 0.00 | 60 | 458.6 |
| 20260507073539 | 84 | 270 | 0.0 | 0.0 | 0.00 | 0.00 | 0.00 | 60 | 458.6 |
| 20260507072808 | 83 | 315 | 0.0 | 0.0 | 0.00 | 0.00 | 0.00 | 62 | 458.6 |
| 20260507072038 | 83 | 315 | 0.0 | 0.0 | 0.00 | 0.00 | 0.00 | 63 | 458.6 |
| 20260507071308 | 82 | 315 | 0.0 | 0.0 | 0.00 | 0.00 | 0.00 | 65 | 458.6 |
| 20260507070538 | 82 | 270 | 0.0 | 0.0 | 0.00 | 0.00 | 0.00 | 66 | 458.5 |
| 20260507065808 | 81 | 315 | 0.0 | 0.0 | 0.00 | 0.00 | 0.00 | 66 | 458.6 |
| 20260507065038 | 80 | 315 | 0.0 | 0.0 | 0.00 | 0.00 | 0.00 | 66 | 458.6 |
| 20260507064308 | 80 | 315 | 0.0 | 0.0 | 0.00 | 0.00 | 0.00 | 68 | 458.5 |
| 20260507063538 | 79 | 315 | 0.0 | 0.0 | 0.00 | 0.00 | 0.00 | 69 | 458.5 |
| 20260507062808 | 79 | 315 | 0.0 | 0.0 | 0.00 | 0.00 | 0.00 | 68 | 458.5 |
| 20260507062038 | 78 | 315 | 0.0 | 0.0 | 0.00 | 0.00 | 0.00 | 69 | 458.5 |
| 20260507061308 | 78 | 315 | 0.0 | 0.0 | 0.00 | 0.00 | 0.00 | 70 | 458.6 |
| 20260507060538 | 77 | 315 | 0.0 | 0.0 | 0.00 | 0.00 | 0.00 | 71 | 458.5 |
| 20260507055808 | 76 | 315 | 0.0 | 0.0 | 0.00 | 0.00 | 0.00 | 70 | 458.5 |
| 20260507055038 | 75 | 315 | 0.0 | 0.0 | 0.00 | 0.00 | 0.00 | 69 | 458.5 |
| 20260507054308 | 75 | 315 | 0.0 | 0.0 | 0.00 | 0.00 | 0.00 | 69 | 458.5 |
| 20260507053538 | 73 | 270 | 0.0 | 0.0 | 0.00 | 0.00 | 0.00 | 70 | 458.5 |
| 20260507052808 | 73 | 270 | 0.0 | 0.0 | 0.00 | 0.00 | 0.00 | 70 | 458.5 |
| 20260507052038 | 71 | 270 | 0.0 | 0.0 | 0.00 | 0.00 | 0.00 | 69 | 458.5 |
| 20260507051307 | 70 | 270 | 0.0 | 0.0 | 0.00 | 0.00 | 0.00 | 70 | 458.5 |
| 20260507050537 | 69 | 270 | 0.0 | 0.0 | 0.00 | 0.00 | 0.00 | 69 | 458.5 |
| 20260507045807 | 67 | 270 | 0.0 | 0.0 | 0.00 | 0.00 | 0.00 | 68 | 458.4 |
| 20260507045037 | 66 | 0 | 0.0 | 0.0 | 0.00 | 0.00 | 0.00 | 68 | 458.5 |
| 20260507044307 | 65 | 270 | 0.0 | 0.0 | 0.00 | 0.00 | 0.00 | 68 | 458.5 |
| 20260507043537 | 63 | 270 | 0.0 | 0.0 | 0.00 | 0.00 | 0.00 | 69 | 458.5 |
| 20260507042807 | 61 | 270 | 0.0 | 0.0 | 0.00 | 0.00 | 0.00 | 68 | 458.5 |
| 20260507042037 | 60 | 0 | 0.0 | 0.0 | 0.00 | 0.00 | 0.00 | 65 | 458.5 |
| 20260507041307 | 58 | 180 | 0.0 | 0.0 | 0.00 | 0.00 | 0.00 | 63 | 458.4 |
| 20260507040537 | 57 | 180 | 0.0 | 0.0 | 0.00 | 0.00 | 0.00 | 62 | 458.4 |
| 20260507035807 | 56 | 0 | 0.0 | 0.0 | 0.00 | 0.00 | 0.00 | 59 | 458.4 |
| 20260507035037 | 55 | 270 | 0.0 | 0.0 | 0.00 | 0.00 | 0.00 | 58 | 458.5 |
| 20260507034307 | 55 | 0 | 0.0 | 0.0 | 0.00 | 0.00 | 0.00 | 56 | 458.5 |
| 20260507033537 | 55 | 180 | 0.0 | 0.0 | 0.00 | 0.00 | 0.00 | 56 | 458.4 |
| 20260507032807 | 55 | 0 | 0.0 | 0.0 | 0.00 | 0.00 | 0.00 | 56 | 458.4 |
| 20260507032037 | 55 | 135 | 0.0 | 0.0 | 0.00 | 0.00 | 0.00 | 55 | 458.4 |
| 20260507031307 | 55 | 270 | 0.0 | 0.0 | 0.00 | 0.00 | 0.00 | 55 | 458.4 |
| 20260507030537 | 55 | 270 | 0.0 | 0.0 | 0.00 | 0.00 | 0.00 | 55 | 458.4 |
| 20260507025806 | 55 | 0 | 0.0 | 0.0 | 0.00 | 0.00 | 0.00 | 55 | 458.4 |
| 20260507025036 | 56 | 180 | 0.0 | 0.0 | 0.00 | 0.00 | 0.00 | 55 | 458.4 |
| 20260507024306 | 55 | 270 | 0.0 | 0.0 | 0.00 | 0.00 | 0.00 | 55 | 458.4 |
| 20260507023536 | 55 | 270 | 0.0 | 0.0 | 0.00 | 0.00 | 0.00 | 54 | 458.4 |
| 20260507022806 | 55 | 270 | 0.0 | 0.0 | 0.00 | 0.00 | 0.00 | 54 | 458.4 |
| 20260507022036 | 56 | 180 | 0.0 | 0.0 | 0.00 | 0.00 | 0.00 | 53 | 458.4 |
| 20260507021306 | 56 | 0 | 0.0 | 0.0 | 0.00 | 0.00 | 0.00 | 53 | 458.4 |
| 20260507020536 | 56 | 135 | 0.0 | 0.0 | 0.00 | 0.00 | 0.00 | 53 | 458.4 |
| 20260507015806 | 56 | 180 | 0.0 | 0.0 | 0.00 | 0.00 | 0.00 | 54 | 458.4 |
| 20260507015036 | 57 | 0 | 0.0 | 0.0 | 0.00 | 0.00 | 0.00 | 53 | 458.5 |
| 20260507014306 | 57 | 0 | 0.0 | 0.0 | 0.00 | 0.00 | 0.00 | 53 | 458.4 |
| 20260507013536 | 57 | 0 | 0.0 | 0.0 | 0.00 | 0.00 | 0.00 | 53 | 458.4 |
| 20260507012806 | 57 | 180 | 0.0 | 0.0 | 0.00 | 0.00 | 0.00 | 53 | 458.4 |
| 20260507012036 | 57 | 180 | 0.0 | 0.0 | 0.00 | 0.00 | 0.00 | 53 | 458.4 |
| 20260507011306 | 57 | 180 | 0.0 | 0.0 | 0.00 | 0.00 | 0.00 | 53 | 458.4 |
| 20260507010535 | 58 | 180 | 0.0 | 0.0 | 0.00 | 0.00 | 0.00 | 53 | 458.4 |
| 20260507005805 | 58 | 270 | 0.0 | 0.0 | 0.00 | 0.00 | 0.00 | 53 | 458.4 |
| 20260507005036 | 58 | 0 | 0.0 | 0.0 | 0.00 | 0.00 | 0.00 | 53 | 458.5 |
| 20260507004305 | 58 | 270 | 0.0 | 0.0 | 0.00 | 0.00 | 0.00 | 52 | 458.4 |
| 20260507003535 | 59 | 270 | 0.0 | 0.0 | 0.00 | 0.00 | 0.00 | 53 | 458.4 |
| 20260507002805 | 58 | 0 | 0.0 | 0.0 | 0.00 | 0.00 | 0.00 | 52 | 458.4 |
| 20260507002035 | 59 | 0 | 0.0 | 0.0 | 0.00 | 0.00 | 0.00 | 53 | 458.4 |
| 20260507001305 | 59 | 270 | 0.0 | 0.0 | 0.00 | 0.00 | 0.00 | 52 | 458.4 |
| 20260507000535 | 59 | 0 | 0.0 | 0.0 | 0.00 | 0.00 | 0.00 | 52 | 458.4 |
| 20260506235805 | 59 | 270 | 0.0 | 0.0 | 0.00 | 0.00 | 0.00 | 52 | 458.5 |
| 20260506235035 | 59 | 0 | 0.0 | 0.0 | 0.00 | 0.00 | 0.00 | 52 | 458.4 |
| 20260506234305 | 59 | 180 | 0.0 | 0.0 | 0.00 | 0.00 | 0.00 | 51 | 458.4 |
| 20260506233535 | 59 | 180 | 0.0 | 0.0 | 0.00 | 0.00 | 0.00 | 50 | 458.4 |
| 20260506232805 | 59 | 180 | 0.0 | 0.0 | 0.00 | 0.00 | 0.00 | 50 | 458.4 |
| 20260506232035 | 59 | 180 | 0.0 | 0.0 | 0.00 | 0.00 | 0.00 | 50 | 458.4 |
| 20260506231305 | 59 | 180 | 0.0 | 0.0 | 0.00 | 0.00 | 0.00 | 50 | 458.5 |
| 20260506230535 | 60 | 180 | 0.0 | 0.0 | 0.00 | 0.00 | 0.00 | 50 | 458.5 |
| 20260506225805 | 60 | 0 | 0.0 | 0.0 | 0.00 | 0.00 | 0.00 | 50 | 458.4 |
| 20260506225035 | 61 | 270 | 0.0 | 0.0 | 0.00 | 0.00 | 0.00 | 50 | 458.4 |
| 20260506224305 | 61 | 180 | 0.0 | 0.0 | 0.00 | 0.00 | 0.00 | 50 | 458.4 |
| 20260506223535 | 61 | 0 | 0.0 | 0.0 | 0.00 | 0.00 | 0.00 | 50 | 458.4 |
| 20260506222805 | 61 | 0 | 0.0 | 0.0 | 0.00 | 0.00 | 0.00 | 51 | 458.4 |
| 20260506222034 | 61 | 270 | 0.0 | 0.0 | 0.00 | 0.00 | 0.00 | 50 | 458.4 |
| 20260506221304 | 62 | 270 | 0.0 | 0.0 | 0.00 | 0.00 | 0.00 | 50 | 458.5 |
| 20260506220534 | 62 | 90 | 0.0 | 0.0 | 0.00 | 0.00 | 0.00 | 50 | 458.4 |
| 20260506215804 | 62 | 0 | 0.0 | 0.0 | 0.00 | 0.00 | 0.00 | 49 | 458.4 |
| 20260506215034 | 62 | 0 | 0.0 | 0.0 | 0.00 | 0.00 | 0.00 | 49 | 458.4 |
| 20260506214304 | 62 | 270 | 0.0 | 0.0 | 0.00 | 0.00 | 0.00 | 49 | 458.4 |
| 20260506213534 | 62 | 270 | 0.0 | 0.0 | 0.00 | 0.00 | 0.00 | 49 | 458.5 |
| 20260506212804 | 62 | 0 | 0.0 | 0.0 | 0.00 | 0.00 | 0.00 | 48 | 458.4 |
| 20260506212034 | 62 | 135 | 0.0 | 0.0 | 0.00 | 0.00 | 0.00 | 47 | 458.4 |
| 20260506211304 | 62 | 0 | 0.0 | 0.0 | 0.00 | 0.00 | 0.00 | 47 | 458.4 |
| 20260506210534 | 62 | 90 | 0.0 | 0.0 | 0.00 | 0.00 | 0.00 | 48 | 458.4 |
| 20260506205804 | 62 | 135 | 0.0 | 0.0 | 0.00 | 0.00 | 0.00 | 47 | 458.4 |
| 20260506205034 | 62 | 180 | 0.0 | 0.0 | 0.00 | 0.00 | 0.00 | 48 | 458.5 |
| 20260506204304 | 62 | 180 | 0.0 | 0.0 | 0.00 | 0.00 | 0.00 | 47 | 458.4 |
| 20260506203534 | 62 | 0 | 0.0 | 0.0 | 0.00 | 0.00 | 0.00 | 47 | 458.5 |
| 20260506202804 | 63 | 135 | 0.0 | 0.0 | 0.00 | 0.00 | 0.00 | 45 | 458.4 |
| 20260506202034 | 63 | 180 | 0.0 | 0.0 | 0.00 | 0.00 | 0.00 | 46 | 458.5 |
| 20260506201304 | 64 | 90 | 0.0 | 0.0 | 0.00 | 0.00 | 0.00 | 45 | 458.5 |
| 20260506200534 | 64 | 135 | 0.0 | 0.0 | 0.00 | 0.00 | 0.00 | 45 | 458.4 |
| 20260506195803 | 65 | 180 | 0.0 | 0.0 | 0.00 | 0.00 | 0.00 | 47 | 458.4 |
| 20260506195033 | 65 | 135 | 0.0 | 0.0 | 0.00 | 0.00 | 0.00 | 45 | 458.4 |
| 20260506194303 | 65 | 90 | 0.0 | 0.0 | 0.00 | 0.00 | 0.00 | 45 | 458.4 |
| 20260506193533 | 66 | 180 | 0.0 | 0.0 | 0.00 | 0.00 | 0.00 | 45 | 458.4 |
| 20260506192803 | 66 | 180 | 0.0 | 0.0 | 0.00 | 0.00 | 0.00 | 45 | 458.5 |
| 20260506192033 | 67 | 0 | 0.0 | 0.0 | 0.00 | 0.00 | 0.00 | 44 | 458.5 |
| 20260506191303 | 67 | 180 | 0.0 | 0.0 | 0.00 | 0.00 | 0.00 | 45 | 458.5 |
| 20260506190533 | 68 | 0 | 0.0 | 0.0 | 0.00 | 0.00 | 0.00 | 43 | 458.4 |
| 20260506185803 | 69 | 180 | 0.0 | 0.0 | 0.00 | 0.00 | 0.00 | 43 | 458.5 |
| 20260506185033 | 69 | 135 | 0.0 | 0.0 | 0.00 | 0.00 | 0.00 | 43 | 458.4 |
| 20260506184303 | 70 | 180 | 0.0 | 0.0 | 0.00 | 0.00 | 0.00 | 44 | 458.5 |
| 20260506183533 | 71 | 45 | 0.0 | 0.0 | 0.00 | 0.00 | 0.00 | 44 | 458.5 |
| 20260506182803 | 71 | 90 | 0.0 | 0.0 | 0.00 | 0.00 | 0.00 | 44 | 458.5 |
| 20260506182033 | 72 | 270 | 0.0 | 0.0 | 0.00 | 0.00 | 0.00 | 43 | 458.5 |
| 20260506181303 | 73 | 0 | 0.0 | 0.0 | 0.00 | 0.00 | 0.00 | 43 | 458.5 |
| 20260506180533 | 74 | 0 | 0.0 | 0.0 | 0.00 | 0.00 | 0.00 | 44 | 458.5 |
| 20260506175803 | 74 | 270 | 0.0 | 0.0 | 0.00 | 0.00 | 0.00 | 44 | 458.5 |
| 20260506175033 | 74 | 270 | 0.0 | 0.0 | 0.00 | 0.00 | 0.00 | 44 | 458.5 |
| 20260506174302 | 75 | 315 | 0.0 | 0.0 | 0.00 | 0.00 | 0.00 | 43 | 458.5 |
| 20260506173533 | 75 | 270 | 0.0 | 0.0 | 0.00 | 0.00 | 0.00 | 42 | 458.5 |
| 20260506172802 | 76 | 180 | 0.0 | 0.0 | 0.00 | 0.00 | 0.00 | 43 | 458.5 |
| 20260506172032 | 76 | 0 | 0.0 | 0.0 | 0.00 | 0.00 | 0.00 | 42 | 458.5 |
| 20260506171302 | 76 | 270 | 0.0 | 0.0 | 0.00 | 0.00 | 0.00 | 42 | 458.5 |
| 20260506170532 | 77 | 45 | 0.0 | 0.0 | 0.00 | 0.00 | 0.00 | 41 | 458.5 |
| 20260506165802 | 78 | 315 | 0.0 | 0.0 | 0.00 | 0.00 | 0.00 | 41 | 458.6 |
| 20260506165032 | 78 | 315 | 0.0 | 0.0 | 0.00 | 0.00 | 0.00 | 42 | 458.6 |
| 20260506164302 | 79 | 315 | 0.0 | 0.0 | 0.00 | 0.00 | 0.00 | 42 | 458.5 |
| 20260506163532 | 79 | 315 | 0.0 | 0.0 | 0.00 | 0.00 | 0.00 | 41 | 458.6 |
| 20260506162802 | 79 | 315 | 0.0 | 0.0 | 0.00 | 0.00 | 0.00 | 41 | 458.5 |
| 20260506162032 | 79 | 315 | 0.0 | 0.0 | 0.00 | 0.00 | 0.00 | 41 | 458.4 |
| 20260506161302 | 79 | 315 | 0.0 | 0.0 | 0.00 | 0.00 | 0.00 | 41 | 458.6 |
| 20260506160532 | 80 | 315 | 0.0 | 0.0 | 0.00 | 0.00 | 0.00 | 41 | 458.6 |
| 20260506155802 | 80 | 315 | 0.0 | 0.0 | 0.00 | 0.00 | 0.00 | 41 | 458.6 |
| 20260506155032 | 80 | 315 | 0.0 | 0.0 | 0.00 | 0.00 | 0.00 | 41 | 458.6 |
| 20260506154302 | 80 | 315 | 0.0 | 0.0 | 0.00 | 0.00 | 0.00 | 41 | 458.6 |
| 20260506153532 | 80 | 0 | 0.0 | 0.0 | 0.00 | 0.00 | 0.00 | 41 | 458.6 |
| 20260506152802 | 80 | 315 | 0.0 | 0.0 | 0.00 | 0.00 | 0.00 | 41 | 458.6 |
| 20260506152031 | 80 | 45 | 0.0 | 0.0 | 0.00 | 0.00 | 0.00 | 41 | 458.6 |
| 20260506151301 | 80 | 315 | 0.0 | 0.0 | 0.00 | 0.00 | 0.00 | 41 | 458.5 |
| 20260506150531 | 80 | 315 | 0.0 | 0.0 | 0.00 | 0.00 | 0.00 | 41 | 458.6 |
| 20260506145801 | 80 | 315 | 0.0 | 0.0 | 0.00 | 0.00 | 0.00 | 41 | 458.5 |
| 20260506145031 | 81 | 315 | 0.0 | 0.0 | 0.00 | 0.00 | 0.00 | 41 | 458.5 |
| 20260506144301 | 81 | 0 | 0.0 | 0.0 | 0.00 | 0.00 | 0.00 | 41 | 458.6 |
| 20260506143531 | 82 | 0 | 0.0 | 0.0 | 0.00 | 0.00 | 0.00 | 42 | 458.5 |
| 20260506142801 | 82 | 315 | 0.0 | 0.0 | 0.00 | 0.00 | 0.00 | 42 | 458.5 |
| 20260506142031 | 82 | 315 | 0.0 | 0.0 | 0.00 | 0.00 | 0.00 | 42 | 458.6 |
| 20260506141301 | 82 | 0 | 0.0 | 0.0 | 0.00 | 0.00 | 0.00 | 42 | 458.6 |
| 20260506140531 | 81 | 315 | 0.0 | 0.0 | 0.00 | 0.00 | 0.00 | 42 | 458.6 |
| 20260506135801 | 81 | 315 | 0.0 | 0.0 | 0.00 | 0.00 | 0.00 | 42 | 458.5 |
| 20260506135031 | 81 | 0 | 0.0 | 0.0 | 0.00 | 0.00 | 0.00 | 41 | 458.5 |